Date,TemperatureHighF,TemperatureAvgF,TemperatureLowF,DewpointHighF,DewpointAvgF,DewpointLowF,HumidityHigh,HumidityAvg,HumidityLow,PressureMaxIn,PressureMinIn,WindSpeedMaxMPH,WindSpeedAvgMPH,GustSpeedMaxMPH,PrecipitationSumIn
2013-1-1,44.8,40.1,35.6,32.5,13.0,-15.5,74,39,10,30.17,30.01,15,4,15,0.07
2013-1-2,35.8,31.5,28.4,27.7,16.1,6.8,75,54,38,30.24,30.04,16,2,18,0.05
2013-1-3,35.8,29.7,27.3,18.0,-0.4,-20.0,60,32,10,30.28,30.20,8,2,14,0.00
2013-1-4,35.8,27.9,22.1,-3.5,-10.4,-20.4,31,19,10,30.34,30.25,17,10,33,0.00
2013-1-5,47.1,34.1,25.3,-5.3,-10.9,-19.9,25,14,10,30.44,30.29,16,6,24,0.00
2013-1-6,40.6,34.9,30.2,10.6,6.5,-9.1,43,30,14,30.29,30.15,13,5,17,0.01
2013-1-7,46.4,34.9,27.0,3.5,-5.4,-15.8,34,19,10,30.47,30.24,14,6,18,0.00
2013-1-8,51.6,40.0,28.6,20.3,0.4,-11.1,41,21,10,30.49,30.42,7,2,8,0.00
2013-1-9,61.5,49.9,41.9,34.8,26.5,11.6,67,43,14,30.54,30.44,10,3,17,0.00
2013-1-10,60.8,47.8,41.7,29.4,2.4,-8.1,48,17,10,30.63,30.50,11,3,15,0.00
2013-1-11,53.1,44.3,35.2,44.7,28.4,-9.7,77,58,10,30.50,30.25,10,3,15,0.04
2013-1-12,70.0,60.6,52.5,48.1,41.5,28.0,71,52,21,30.30,30.24,9,3,12,0.00
2013-1-13,69.6,61.4,58.1,41.7,36.7,19.2,53,41,15,30.26,30.17,10,5,16,0.00
2013-1-14,60.4,51.0,39.6,48.9,42.2,36.3,89,73,46,30.33,30.20,11,4,13,0.52
2013-1-15,42.6,38.0,33.4,40.5,36.1,31.6,94,93,88,30.32,30.16,4,2,6,0.00
2013-1-16,60.1,45.9,27.5,51.0,36.4,2.1,99,74,33,30.23,29.92,16,3,16,0.02
2013-1-17,41.9,34.4,28.9,33.2,25.2,12.9,80,69,43,30.04,29.88,12,4,14,0.37
2013-1-18,32.4,26.4,22.1,22.9,5.2,-22.4,80,44,10,30.34,30.05,0,0,0,0.06
2013-1-19,57.9,36.8,24.8,1.7,-8.4,-16.8,27,15,10,30.29,30.00,5,1,8,0.00
2013-1-20,45.3,38.6,33.8,-8.0,-13.1,-16.9,12,10,10,30.00,29.91,23,7,23,0.01
2013-1-21,50.7,35.2,24.6,-3.8,-15.8,-24.1,10,10,10,29.97,29.80,15,5,18,0.00
2013-1-22,23.4,16.5,11.3,-25.1,-30.4,-34.5,10,10,10,30.05,29.83,24,8,24,0.00
2013-1-23,31.1,21.4,10.0,-19.0,-26.6,-35.5,10,10,10,30.11,29.88,11,4,14,0.00
2013-1-24,33.6,20.6,10.9,-17.1,-27.2,-34.8,10,10,10,30.28,29.82,24,10,33,0.00
2013-1-25,32.4,17.9,11.1,7.0,-19.0,-34.6,36,19,10,30.26,29.89,7,3,13,0.00
2013-1-26,37.8,28.8,21.9,4.3,-12.8,-22.7,30,16,10,30.22,29.90,17,8,18,0.07
2013-1-27,33.4,25.7,17.6,-11.7,-16.8,-23.2,25,15,10,30.37,30.22,14,3,14,0.00
2013-1-28,61.7,43.7,30.6,12.2,1.8,-19.0,39,19,10,30.26,30.11,6,2,10,0.01
2013-1-29,72.3,56.5,46.0,27.6,12.6,0.4,31,19,10,30.14,29.99,9,4,14,0.00
2013-1-30,61.2,57.5,44.6,54.9,44.2,27.3,89,62,30,29.97,29.39,25,8,32,1.63
2013-1-31,46.0,32.0,26.8,34.4,-6.5,-21.4,65,22,10,29.81,29.39,16,7,25,0.01
2013-2-1,33.3,19.7,12.9,11.1,-24.0,-33.2,46,13,10,30.14,29.69,30,10,30,0.00
2013-2-2,34.3,23.0,10.9,0.9,-22.9,-34.8,32,12,10,30.15,29.87,8,3,10,0.00
2013-2-3,35.6,29.0,25.0,2.2,-12.7,-23.7,31,17,10,29.87,29.73,20,7,22,0.00
2013-2-4,40.5,29.1,19.0,-11.8,-20.4,-28.0,12,10,10,29.96,29.84,17,5,20,0.00
2013-2-5,49.8,39.5,33.3,-3.8,-10.6,-17.3,17,11,10,29.87,29.80,12,4,17,0.00
2013-2-6,49.1,40.4,34.0,-1.3,-10.1,-16.8,19,11,10,30.17,29.87,12,4,15,0.00
2013-2-7,37.2,32.0,29.8,13.3,-0.8,-19.0,45,26,10,30.20,29.96,5,2,6,0.01
2013-2-8,46.4,34.7,29.3,35.1,9.1,-16.6,78,43,10,29.96,29.76,35,8,35,0.14
2013-2-9,42.1,32.4,23.4,-6.9,-16.6,-25.1,20,11,10,30.22,29.92,30,10,45,0.00
2013-2-10,46.8,37.0,29.5,12.6,-12.2,-20.3,37,12,10,30.29,30.05,11,4,14,0.05
2013-2-11,62.2,49.6,37.6,38.9,16.5,-8.8,72,34,10,30.05,29.85,15,6,21,0.07
2013-2-12,53.6,42.2,34.3,-1.6,-10.4,-16.5,10,10,10,29.96,29.88,24,9,30,0.00
2013-2-13,41.4,37.5,32.4,27.5,16.1,-7.4,61,43,12,29.87,29.55,21,4,21,0.11
2013-2-14,50.0,36.9,27.3,8.4,-7.5,-17.9,36,16,10,29.93,29.72,19,5,22,0.00
2013-2-15,54.1,40.0,30.9,14.1,-1.1,-12.8,44,19,10,29.97,29.85,12,4,17,0.01
2013-2-16,30.9,26.6,19.0,6.8,-17.6,-28.4,36,14,10,29.88,29.72,17,9,24,0.00
2013-2-17,22.8,18.0,11.8,1.8,-17.5,-34.1,45,22,10,30.25,29.76,26,12,30,0.12
2013-2-18,49.6,33.5,18.3,23.1,12.2,-2.3,55,42,27,30.39,30.23,18,2,18,0.11
2013-2-19,47.7,38.3,30.4,40.1,25.0,7.7,99,61,32,30.23,29.94,15,7,30,0.02
2013-2-20,38.3,29.4,23.5,12.4,5.3,-1.9,49,37,20,30.22,30.05,27,12,32,0.01
2013-2-21,44.1,32.0,20.5,14.6,9.2,6.4,60,40,21,30.34,30.18,13,3,25,0.00
2013-2-22,35.8,28.0,25.0,29.3,26.1,13.3,99,93,42,30.38,30.19,7,0,9,0.00
2013-2-23,50.0,38.4,28.2,45.0,36.7,27.5,99,94,79,30.21,29.97,6,0,8,0.21
2013-2-24,48.9,38.3,34.2,40.7,33.1,25.9,99,82,56,30.08,29.96,15,6,23,0.32